Regional Weather Roundup
Issued by NWS Newport/Morehead, NC

Current Version | Previous Version | Graphics & Text | Print | Product List | Glossary On
Versions: 1 2 3 4 5 6 7 8 9 10 11 12 13 14 15 16 17 18 19 20 21 22 23 24 25 26 27 28 29 30 31 32 33 34 35 36 37 38 39 40 41 42 43 44 45 46 47 48 49 50
000 ASUS42 KMHX 200610 RWRMHX WEATHER ROUNDUP FOR EASTERN NORTH CAROLINA NATIONAL WEATHER SERVICE NEWPORT/MOREHEAD CITY NC 200 AM EDT SAT SEP 20 2014 NOTE: "FAIR" INDICATES FEW OR NO CLOUDS BELOW 12,000 FEET WITH NO SIGNIFICANT WEATHER AND/OR OBSTRUCTIONS TO VISIBILITY NCZ015>017-031-032-045>047-102-103-200700- NORTH COAST CITY SKY/WX TMP DP RH WIND PRES REMARKS EDENTON CLEAR 61 59 94 N6 30.22F ELIZABETH CITY CLEAR 66 61 84 N7 30.22F KITTY HAWK PTCLDY 72 61 69 NE7 30.20F MANTEO PTCLDY 71 62 73 NE10 30.21F $$ NCZ045>047-081-094-103-104-200700- CENTRAL COAST CITY SKY/WX TMP DP RH WIND PRES REMARKS FRISCO MOCLDY 70 64 81 NE10G17 30.17F SWANQUARTER N/A 68 N/A N/A NE3G9 30.15F $$ NCZ095-097-098-100-101-200700- SOUTHERN COAST CITY SKY/WX TMP DP RH WIND PRES REMARKS BEAUFORT CLOUDY 72 64 76 NE12 30.15F CEDAR ISLAND N/A 73 N/A N/A NE20G25 30.21F JACKSONVILLE MOCLDY 67 60 78 N9 30.16F NEWPORT NOT AVBL PINEY ISLAND MOCLDY 75 65 70 NE14 30.16F WILMINGTON CLOUDY 67 62 84 NE10 30.15F $$ NCZ011>013-027>030-043-044-078>080-089-090>093-098-200700- COASTAL PLAIN CITY SKY/WX TMP DP RH WIND PRES REMARKS AHOSKIE CLEAR 58 55 90 N3 30.24S CLINTON CLEAR 64 60 89 CALM 30.20S ELIZABETHTOWN CLEAR 63 60 89 CALM 30.18F GOLDSBORO CLEAR 63 62 97 CALM 30.19F GREENVILLE CLEAR 59 59 100 N5 30.22F HAVELOCK MOCLDY 70 61 73 NE12 30.18F KENANSVILLE PTCLDY 64 57 77 NE3 30.20F KINSTON PTCLDY 62 59 90 N5 30.21F NEW BERN PTCLDY 69 59 70 NE10 30.19F RICHLANDS MOCLDY 63 57 82 N6 30.18F ROANOKE RAPIDS NOT AVBL ROCKY MOUNT CLEAR 60 57 89 NE7 30.23F WASHINGTON PTCLDY 61 58 88 NE6 30.21F WHITEVILLE PTCLDY 66 60 80 NE5 30.16F $$ AMZ130-135-150-152-154-156-158-170-250-252-270-ANZ085-086-088-633-658-670-200700- MARINE OBSERVATIONS STATION/POSITION TIME TEMP WIND PRES WAVE SWELL AIR SEA DIR/SP/G HT/PER HT/PER (UTC) (F) (DEG/KT/KT) (MB) (FT/S) (FT/S) CHESAPEAKE LIGHT 0500 71 70/ 17/ 18 1024.7 BUOY 44014 0600 74 76 50/ 17/ 21 1022.6 5/ 7 2/11 DUCK 0600 40/ 16/ 17 N/A 2E DUCK 0600 N/A 5/ 6 OREGON INLET 0600 30/ 14/ 18 N/A BUOY 44095 0600 75 N/A 6/ 5 2/11 20E OREGON INLET NOT AVBL HATTERAS CG 0600 40/ 13/ 18 N/A DIAMOND BUOY 0600 76 50/ 17/ 21 1020.6 6/ 6 CAPE LOOKOUT 0600 74 30/ 20/ 24 1020.5 BEAUFORT LAB 0600 30/ 7/ 13 N/A 30 SE NEW RIVER 0600 79 82 70/ 19/ 25 1020.1 6/ 6 2/12 5 SE WRIGHTSVILL 0500 72 80 70/ 19/ 27 N/A BUOY 41002 0549 78 82 80/ 19/ 23 1017.2 7/ 7 BUOY 41004 0600 77 82 80/ 21/ 29 1017.1 7/ 7 2/11 $$

USA.gov is the U.S. government's official web portal to all federal, state and local government web resources and services.